075  
ASUS45 KTFX 220210  
RWRMT  
MONTANA REGIONAL WEATHER ROUNDUP  
NATIONAL WEATHER SERVICE GREAT FALLS MT  
800 PM MDT FRI JUL 21 2017  
 
NOTE: "FAIR" INDICATES FEW OR NO CLOUDS BELOW 12000 FEET WITH NO  
SIGNIFICANT WEATHER AND/OR S TO VISIBILITY
.  
 
MTZ001>007-043-220300-  
WEST OF THE DIVIDE  
 
CITY SKY/WX TMP DP RH WIND PRES REMARKS
 
KALISPELL MOSUNNY 77 37 23 W7 30.04R  
MISSOULA SUNNY 80 30 16 NW14G21 30.06R  
BUTTE SUNNY 77 20 12 NW16 30.15R  
MULLAN PASS SUNNY 60 37 42 VRB7 30.25R  
ANACONDA N/A 77 18 10 W17 30.12R  
DEER LODGE N/A 75 34 22 NW12 30.13R  
EUREKA N/A 77 41 27 MISG 30.05R  
HAMILTON N/A 81 25 12 W9 30.07R  
LIBBY N/A 79 34 19 N6 30.04S  
PLAINS N/A 79 42 26 SW6 30.06  

 
 
MTZ008-052>055-220300-  
SOUTHWEST MONTANA  
 
CITY SKY/WX TMP DP RH WIND PRES REMARKS
 
BOZEMAN CLEAR 76 48 37 N8 30.04R  
DILLON SUNNY 81 39 22 N7 30.08S  
W YELLOWSTONE CLEAR 75 32 20 SW12 30.20S  
ENNIS CLEAR 81 25 12 NW10 30.15S  
THREE FORKS N/A 84 29 13 NW7 30.03R  
TWIN BRIDGES N/A 84 33 16 CALM 30.06  

 
 
MTZ009-010-012-014-046-048-049-054-220300-  
EAST SLOPES AND CENTRAL MONTANA  
 
CITY SKY/WX TMP DP RH WIND PRES REMARKS
 
CUT BANK MOSUNNY 75 32 20 NW13 30.03R  
GREAT FALLS SUNNY 82 20 10 NW12 30.00R  
HELENA SUNNY 83 30 14 W14 30.05R  
CHOTEAU N/A 79 30 17 NW8 30.05R  

 
 
MTZ011-013-016-021-045-047-050-051-220300-  
NORTH CENTRAL MONTANA  
 
CITY SKY/WX TMP DP RH WIND PRES REMARKS
 
HAVRE CLEAR 81 35 19 NW14 29.93R  
LEWISTOWN CLEAR 80 25 13 NW7 30.02R  
N BAR RANCH N/A 77 23 13 NW8G14 30.06R  
CHINOOK N/A 81 36 19 NW13G22 29.91R  

 
 
MTZ017>020-022>027-061-062-220300-  
NORTHEAST MONTANA  
 
CITY SKY/WX TMP DP RH WIND PRES REMARKS
 
GLASGOW CLEAR 83 27 13 NW12 29.87R  
JORDAN N/A 86 22 9 NW15 29.89S  
SIDNEY CLEAR 85 33 15 NW12 29.85R  
WOLF POINT CLEAR 86 31 13 NW12 29.85F  
MALTA CLEAR 84 27 12 NW10G17 29.88S  
PLENTYWOOD N/A 79 45 29 NW12 29.86R  
POPLAR N/A 84 36 17 NW13G18 29.85S  
SCOBEY N/A 79 41 25 W6 29.88S  

 
 
MTZ028>42-056>058-220300-  
SOUTHCENTRAL AND SOUTHEAST MONTANA  
 
CITY SKY/WX TMP DP RH WIND PRES REMARKS
 
BAKER CLEAR 83 32 16 N9 29.92R  
BILLINGS CLEAR 87 28 12 N10 29.96R  
LIVINGSTON CLEAR 82 29 14 NW10 30.03R  
MILES CITY CLOUDY 87 25 10 N13 29.88R HAZE  
BIG TIMBER CLEAR 82 27 13 W12 30.04S  
EKALAKA N/A 81 30 15 W5 29.94S  
FORSYTH N/A 88 28 11 N5 29.88R  
LAUREL N/A 88 31 13 CALM 29.96R  

 
 
REGIONAL REPORTS...DAKOTAS  
 
CITY SKY/WX TMP DP RH WIND PRES REMARKS
 
WILLISTON CLEAR 84 44 24 NW12 29.83R  
MINOT CLOUDY 83 67 58 E5 29.73S  
DICKINSON CLEAR 81 36 19 NW12 29.85R  
BEACH N/A 77 32 19 NW8 29.93R  
CROSBY N/A 77 45 31 NW10 29.83R  
TIOGA N/A 79 46 31 NW9 29.85R  
WATFORD CITY N/A 82 46 28 N10 29.83R  
BISMARCK CLEAR 84 71 65 E7 29.76S  
GRAND FORKS MOCLDY 77 73 87 E9 29.73F  
FARGO LGT RAIN 75 61 61 E9 29.75R  
BUFFALO SD N/A 83 40 21 NW14 29.85R  
RAPID CITY PTCLDY 84 43 23 N12 29.91R  

 
 
REGIONAL REPORTS...WYOMING/IDAHO/WASHINGTON  
 
CITY SKY/WX TMP DP RH WIND PRES REMARKS
 
GILLETTE CLEAR 82 36 19 N6 30.01R  
SHERIDAN CLEAR 80 49 33 W5 30.00R  
BUFFALO WY CLEAR 79 37 22 NW8 30.08R  
CODY CLEAR 80 40 23 N13G20 30.07R  
YELLOWSTONE LA N/A 68 33 27 CALM 30.31S  
IDAHO FALLS CLEAR 84 39 20 S13 30.05S  
BOISE SUNNY 90 35 14 N10 29.96F  
SPOKANE MOSUNNY 79 35 20 SW9 30.08S  

 
 
REGIONAL REPORTS...ALBERTA  
 
CITY SKY/WX TMP DP RH WIND PRES REMARKS
 
EDMONTON SUNNY 66 59 77 W2 29.92R  
CALGARY PTSUNNY 70 39 32 NW12 30.02R  
LETHBRIDGE PTSUNNY 70 45 40 NE7 30.00R  
MEDICINE HAT PTSUNNY 72 46 40 NW16G24 29.96R  
WATERTON GATE N/A 70 37 30 SW9 N/A  
CARDSTON N/A 70 43 37 NW7 N/A  
ONEFOUR N/A 75 36 23 NW20 N/A  

 
 
REGIONAL REPORTS...SASKATCHEWAN  
 
CITY SKY/WX TMP DP RH WIND PRES REMARKS
 
SWIFT CURRENT CLEAR 70 46 43 NW7 29.90S  
SASKATOON MOCLDY 63 57 82 NE7 29.87F  
CYPRESS HILLS N/A 66 34 30 NW7 N/A  
VAL MARIE N/A 77 34 20 NW13 N/A  
ROCKGLEN N/A 73 41 31 NW7 N/A  
ASSINIBOIA N/A 63 57 82 NW5 N/A  

 
 
 
CLICK HERE TO GO TO PREVIOUS BULLETINS.

The Nexlab MT Page Main Text Page